GW1769 Weather Reports


time (UTC)temp
F
wind
direction
speed
knots
gust
knots
rain 1hr
in
rain 24hr
in
rain mn
in
humidity
%
barometer
mb
20260508085207 39 313 1.7 2.6 0.00 0.00 0.00 74 1007.2
20260508084703 38 26 0.0 0.0 0.00 0.00 0.00 73 1007.3
20260508084201 38 0 0.9 0.9 0.00 0.00 0.00 74 1007.2
20260508083658 38 6 0.9 0.9 0.00 0.00 0.00 73 1007.2
20260508083155 38 342 0.9 1.7 0.00 0.00 0.00 73 1007.2
20260508082650 38 354 1.7 1.7 0.00 0.00 0.00 73 1007.1
20260508082148 38 29 0.0 0.0 0.00 0.00 0.00 73 1007.1
20260508081645 38 29 0.0 0.9 0.00 0.00 0.00 72 1006.7
20260508081142 38 343 1.7 1.7 0.00 0.00 0.00 72 1007.0
20260508080639 38 35 0.0 0.9 0.00 0.00 0.00 72 1006.7
20260508080137 38 20 0.9 0.9 0.00 0.00 0.00 72 1006.9
20260508075633 38 352 0.9 1.7 0.00 0.00 0.00 71 1007.1
20260508075130 38 21 0.9 0.9 0.00 0.00 0.00 71 1006.7
20260508074628 38 19 0.9 0.9 0.00 0.00 0.00 70 1006.6
20260508074125 38 23 0.9 0.9 0.00 0.00 0.00 70 1006.6
20260508073622 38 352 0.9 0.9 0.00 0.00 0.00 70 1006.5
20260508073120 38 3 0.9 0.9 0.00 0.00 0.00 71 1006.2
20260508072615 38 316 1.7 1.7 0.00 0.00 0.00 71 1006.3
20260508072112 38 350 0.9 0.9 0.00 0.00 0.00 71 1006.6
20260508071610 38 324 1.7 1.7 0.00 0.00 0.00 71 1006.6
20260508071108 38 359 1.7 1.7 0.00 0.00 0.00 71 1006.6
20260508070605 38 24 0.9 0.9 0.00 0.00 0.00 70 1006.4
20260508070104 38 25 0.0 0.9 0.00 0.00 0.00 70 1006.2
20260508065601 38 24 0.9 0.9 0.00 0.00 0.00 70 1006.3
20260508065059 38 356 0.9 0.9 0.00 0.00 0.00 70 1006.5
20260508064556 39 358 0.9 0.9 0.00 0.00 0.00 69 1006.3
20260508064054 39 22 0.9 0.9 0.00 0.00 0.00 68 1006.3
20260508063551 39 20 0.9 0.9 0.00 0.00 0.00 68 1006.3
20260508063049 39 16 0.9 0.9 0.00 0.00 0.00 68 1006.6
20260508062546 39 17 0.9 0.9 0.00 0.00 0.00 68 1006.3
20260508062042 39 16 0.9 0.9 0.00 0.00 0.00 67 1006.4
20260508061540 39 23 0.9 0.9 0.00 0.00 0.00 68 1006.6
20260508061037 39 358 0.9 0.9 0.00 0.00 0.00 67 1006.5
20260508060534 39 320 1.7 1.7 0.00 0.00 0.00 67 1006.5
20260508060031 39 25 0.9 1.7 0.00 0.00 0.00 67 1006.6
20260508055527 39 318 1.7 1.7 0.00 0.00 0.00 68 1006.6
20260508055024 39 18 1.7 1.7 0.00 0.00 0.00 68 1006.6
20260508054520 39 23 0.0 0.9 0.00 0.00 0.00 68 1006.7
20260508054018 38 336 1.7 1.7 0.00 0.00 0.00 69 1007.2
20260508053514 38 5 0.9 0.9 0.00 0.00 0.00 69 1006.9
20260508053013 38 29 0.9 0.9 0.00 0.00 0.00 69 1006.7
20260508052510 38 11 0.9 0.9 0.00 0.00 0.00 68 1006.7
20260508052006 38 26 0.0 0.9 0.00 0.00 0.00 68 1007.0
20260508051502 39 342 1.7 1.7 0.00 0.00 0.00 67 1007.0
20260508050957 39 17 0.9 0.9 0.00 0.00 0.00 67 1007.2
20260508050454 39 21 0.9 0.9 0.00 0.00 0.00 66 1007.0
20260508045951 39 46 0.9 1.7 0.00 0.00 0.00 67 1007.0
20260508045448 39 33 0.0 0.0 0.00 0.00 0.00 67 1007.0
20260508044945 39 11 0.9 0.9 0.00 0.00 0.00 67 1006.9
20260508044442 38 2 0.9 1.7 0.00 0.00 0.00 67 1006.7
20260508043938 39 15 0.9 0.9 0.00 0.00 0.00 71 1006.7
20260508043436 38 34 0.9 1.7 0.00 0.00 0.00 68 1006.7
20260508042931 37 351 1.7 1.7 0.00 0.00 0.00 73 1006.6
20260508042430 35 43 0.9 0.9 0.00 0.00 0.00 85 1006.5
20260508041926 34 59 0.0 0.0 0.00 0.00 0.00 90 1006.5
20260508041423 33 73 0.0 0.0 0.00 0.00 0.00 91 1006.6
20260508040920 33 73 0.0 0.0 0.00 0.00 0.00 90 1006.6
20260508040417 33 73 0.0 0.0 0.00 0.00 0.00 90 1006.6
20260508035915 34 73 0.0 0.0 0.00 0.00 0.00 89 1006.6
20260508035411 34 73 0.0 0.0 0.00 0.00 0.00 89 1006.7
20260508034908 34 73 0.0 0.0 0.00 0.00 0.00 89 1006.6
20260508034406 34 73 0.0 0.0 0.00 0.00 0.00 88 1006.6
20260508033902 34 75 0.0 0.0 0.00 0.00 0.00 88 1006.5
20260508033400 35 77 0.0 0.0 0.00 0.00 0.00 88 1006.3
20260508032858 35 78 0.0 0.0 0.00 0.00 0.00 87 1006.6
20260508032355 35 78 0.0 0.0 0.00 0.00 0.00 86 1006.5
20260508031851 35 78 0.0 0.0 0.00 0.00 0.00 86 1006.7
20260508031349 35 78 0.0 0.0 0.00 0.00 0.00 85 1006.7
20260508030844 35 78 0.0 0.0 0.00 0.00 0.00 84 1006.6
20260508030342 36 78 0.0 0.0 0.00 0.00 0.00 83 1006.7
20260508025838 36 85 0.0 0.0 0.00 0.00 0.00 82 1006.9
20260508025335 37 85 0.0 0.0 0.00 0.00 0.00 81 1006.7
20260508024832 37 85 0.0 0.0 0.00 0.00 0.00 80 1006.9
20260508024328 38 85 0.0 0.0 0.00 0.00 0.00 77 1006.7
20260508023826 39 105 0.0 0.0 0.00 0.00 0.00 75 1006.6
20260508023322 40 105 0.0 0.0 0.00 0.00 0.00 72 1006.7
20260508022819 41 105 0.0 0.0 0.00 0.00 0.00 65 1007.1
20260508022315 41 106 0.9 0.9 0.00 0.00 0.00 62 1006.7
20260508021812 42 45 0.0 0.0 0.00 0.00 0.00 64 1006.6
20260508021308 43 44 0.0 0.0 0.00 0.00 0.00 62 1006.6
20260508020804 43 3 1.7 1.7 0.00 0.00 0.00 58 1006.7
20260508020302 43 2 1.7 1.7 0.00 0.00 0.00 58 1006.5
20260508015759 42 359 1.7 1.7 0.00 0.00 0.00 61 1006.6
20260508015256 40 23 0.9 0.9 0.00 0.00 0.00 68 1006.7
20260508014753 39 76 0.0 0.0 0.00 0.00 0.00 69 1006.5
20260508014250 39 63 0.0 0.0 0.00 0.00 0.00 71 1006.6
20260508013745 41 67 0.0 0.0 0.00 0.00 0.00 70 1006.5
20260508013242 41 50 0.0 0.0 0.00 0.00 0.00 70 1006.6
20260508012740 42 58 0.9 0.9 0.00 0.00 0.00 64 1006.6
20260508012236 42 82 0.9 0.9 0.00 0.00 0.00 62 1006.5
20260508011735 43 42 0.0 0.0 0.00 0.00 0.00 64 1006.2
20260508011232 44 35 0.9 0.9 0.00 0.00 0.00 62 1006.5
20260508010728 44 9 0.9 0.9 0.00 0.00 0.00 57 1006.4
20260508010227 44 21 0.9 0.9 0.00 0.00 0.00 55 1006.3
20260508005723 44 1 1.7 1.7 0.00 0.00 0.00 56 1006.4
20260508005220 44 17 0.9 0.9 0.00 0.00 0.00 58 1006.1
20260508004715 44 10 0.9 0.9 0.00 0.00 0.00 56 1006.2
20260508004212 44 45 0.0 0.0 0.00 0.00 0.00 60 1005.8
20260508003709 45 31 0.9 0.9 0.00 0.00 0.00 60 1005.8
20260508003206 45 16 0.9 1.7 0.00 0.00 0.00 55 1005.9
20260508002703 45 34 0.9 0.9 0.00 0.00 0.00 54 1005.9
20260508002201 46 33 0.0 0.9 0.00 0.00 0.00 53 1005.6
20260508001655 46 20 0.9 0.9 0.00 0.00 0.00 52 1005.6
20260508001152 46 33 0.9 0.9 0.00 0.00 0.00 55 1005.8
20260508000648 47 8 0.0 0.9 0.00 0.00 0.00 52 1005.6
20260508000145 48 311 2.6 2.6 0.00 0.00 0.00 49 1005.5
20260507235642 48 316 0.9 1.7 0.00 0.00 0.00 50 1005.6
20260507235139 48 11 0.9 0.9 0.00 0.00 0.00 50 1005.5
20260507234636 49 14 0.9 1.7 0.00 0.00 0.00 49 1005.6
20260507234132 49 50 0.9 0.9 0.00 0.00 0.00 50 1005.5
20260507233629 49 314 1.7 1.7 0.00 0.00 0.00 47 1005.4
20260507233128 50 357 1.7 1.7 0.00 0.00 0.00 48 1005.5
20260507232625 50 334 1.7 1.7 0.00 0.00 0.00 46 1005.4
20260507232121 50 331 2.6 2.6 0.00 0.00 0.00 47 1005.4
20260507231617 50 335 1.7 1.7 0.00 0.00 0.00 47 1005.2
20260507231115 50 320 2.6 2.6 0.00 0.00 0.00 46 1005.2
20260507230611 50 2 2.6 2.6 0.00 0.00 0.00 46 1005.3
20260507230108 51 352 2.6 2.6 0.00 0.00 0.00 46 1005.4
20260507225603 51 311 2.6 4.3 0.00 0.00 0.00 46 1005.2
20260507225100 51 348 1.7 1.7 0.00 0.00 0.00 46 1005.1
20260507224555 51 20 1.7 1.7 0.00 0.00 0.00 50 1005.2
20260507224052 51 334 1.7 1.7 0.00 0.00 0.00 47 1005.1
20260507223548 51 294 2.6 4.3 0.00 0.00 0.00 44 1005.3
20260507223045 52 318 2.6 2.6 0.00 0.00 0.00 43 1005.1
20260507222542 52 33 1.7 1.7 0.00 0.00 0.00 44 1005.1
20260507222039 52 6 1.7 1.7 0.00 0.00 0.00 42 1005.1
20260507221535 52 326 2.6 4.3 0.00 0.00 0.00 41 1005.0
20260507221032 52 326 3.5 4.3 0.00 0.00 0.00 42 1005.2
20260507220529 52 328 3.5 4.3 0.00 0.00 0.00 41 1005.3
20260507220027 52 273 2.6 4.3 0.00 0.00 0.00 42 1005.2
20260507215523 53 6 5.2 7.0 0.00 0.00 0.00 39 1005.2
20260507215021 53 318 3.5 5.2 0.00 0.00 0.00 41 1005.2
20260507214518 53 279 3.5 4.3 0.00 0.00 0.00 41 1005.3
20260507214014 52 323 4.3 5.2 0.00 0.00 0.00 41 1005.2
20260507213510 52 337 5.2 7.8 0.00 0.00 0.00 39 1005.3
20260507213007 52 279 3.5 6.1 0.00 0.00 0.00 40 1005.4
20260507212502 52 279 2.6 4.3 0.00 0.00 0.00 40 1005.3
20260507211959 52 298 6.1 7.0 0.00 0.00 0.00 42 1005.4
20260507211456 53 301 7.8 9.6 0.00 0.00 0.00 42 1005.3
20260507210953 53 299 2.6 4.3 0.00 0.00 0.00 42 1005.5
20260507210450 52 329 3.5 4.3 0.00 0.00 0.00 43 1005.4
20260507205947 53 312 5.2 7.0 0.00 0.00 0.00 44 1005.2
20260507205444 52 5 2.6 2.6 0.00 0.00 0.00 44 1005.5
20260507204940 53 336 4.3 6.1 0.00 0.00 0.00 42 1005.5
20260507204436 53 269 4.3 5.2 0.00 0.00 0.00 43 1005.4
20260507203934 54 305 2.6 2.6 0.00 0.00 0.00 41 1005.1
20260507203432 53 268 4.3 4.3 0.00 0.00 0.00 43 1005.4
20260507202928 53 311 6.1 8.7 0.00 0.00 0.00 43 1005.3
20260507202424 54 353 2.6 4.3 0.00 0.00 0.00 44 1005.4
20260507201920 54 9 2.6 2.6 0.00 0.00 0.00 44 1005.2
20260507201415 54 280 2.6 4.3 0.00 0.00 0.00 42 1005.4
20260507200913 54 337 2.6 5.2 0.00 0.00 0.00 44 1005.6
20260507200408 54 50 3.5 5.2 0.00 0.00 0.00 45 1005.6
20260507195904 53 325 2.6 4.3 0.00 0.00 0.00 45 1005.7
20260507195402 51 297 3.5 4.3 0.00 0.00 0.00 47 1005.5
20260507194859 52 281 3.5 4.3 0.00 0.00 0.00 47 1005.3
20260507194355 54 328 4.3 5.2 0.00 0.00 0.00 46 1005.7
20260507193851 55 298 2.6 4.3 0.00 0.00 0.00 47 1005.5
20260507193349 55 283 2.6 4.3 0.00 0.00 0.00 44 1005.6
20260507192845 55 18 2.6 4.3 0.00 0.00 0.00 47 1005.8
20260507192341 54 98 2.6 4.3 0.00 0.00 0.00 45 1005.7
20260507191838 52 309 5.2 6.1 0.00 0.00 0.00 47 1005.6
20260507191334 54 326 6.1 6.1 0.00 0.00 0.00 47 1005.8
20260507190831 53 300 3.5 5.2 0.00 0.00 0.00 48 1006.0
20260507190330 54 7 5.2 7.0 0.00 0.00 0.00 47 1005.9
20260507185828 57 316 2.6 4.3 0.00 0.00 0.00 44 1006.0
20260507185325 56 314 2.6 4.3 0.00 0.00 0.00 44 1006.0
20260507184822 55 338 2.6 2.6 0.00 0.00 0.00 48 1005.9
20260507184320 52 348 2.6 4.3 0.00 0.00 0.00 49 1006.2
20260507183816 52 328 4.3 6.1 0.00 0.00 0.00 49 1006.1
20260507183314 51 353 3.5 4.3 0.00 0.00 0.00 53 1006.2
20260507182811 51 303 3.5 4.3 0.00 0.00 0.00 52 1006.4
20260507182307 50 313 3.5 5.2 0.00 0.00 0.00 52 1006.5
20260507181803 52 314 2.6 4.3 0.00 0.00 0.00 52 1006.4
20260507181259 52 10 3.5 5.2 0.00 0.00 0.00 53 1006.6
20260507180756 53 313 0.9 1.7 0.00 0.00 0.00 50 1006.4
20260507180253 52 338 2.6 2.6 0.00 0.00 0.00 54 1006.4
20260507175748 53 308 3.5 5.2 0.00 0.00 0.00 52 1006.5
20260507175245 53 331 3.5 4.3 0.00 0.00 0.00 54 1006.4
20260507174743 51 307 2.6 4.3 0.00 0.00 0.00 57 1006.5
20260507174241 51 316 1.7 2.6 0.00 0.00 0.00 54 1006.6
20260507173738 50 335 3.5 4.3 0.00 0.00 0.00 55 1006.5
20260507173235 50 12 2.6 2.6 0.00 0.00 0.00 55 1006.5
20260507172731 51 225 2.6 4.3 0.00 0.00 0.00 52 1006.6
20260507172229 51 330 4.3 5.2 0.00 0.00 0.00 53 1006.6
20260507171728 52 291 3.5 4.3 0.00 0.00 0.00 53 1006.6
20260507171226 52 316 2.6 4.3 0.00 0.00 0.00 50 1006.4
20260507170723 52 320 2.6 2.6 0.00 0.00 0.00 54 1006.5
20260507170220 52 309 1.7 2.6 0.00 0.00 0.00 56 1006.9
20260507165715 50 337 3.5 5.2 0.00 0.00 0.00 56 1006.6
20260507165212 50 5 3.5 4.3 0.00 0.00 0.00 56 1006.5
20260507164708 52 34 0.9 1.7 0.00 0.00 0.00 57 1007.0
20260507164205 51 350 3.5 4.3 0.00 0.00 0.00 54 1007.0
20260507163702 53 265 3.5 5.2 0.00 0.00 0.00 52 1007.1
20260507163200 54 327 3.5 4.3 0.00 0.00 0.00 53 1006.9
20260507162655 53 16 1.7 2.6 0.00 0.00 0.00 54 1007.1
20260507162152 52 320 3.5 4.3 0.00 0.00 0.00 52 1007.1
20260507161648 50 15 4.3 5.2 0.00 0.00 0.00 54 1007.2
20260507161145 51 34 3.5 4.3 0.00 0.00 0.00 54 1007.3
20260507160641 50 328 3.5 5.2 0.00 0.00 0.00 54 1007.4
20260507160138 51 357 3.5 4.3 0.00 0.00 0.00 56 1007.5
20260507155633 53 281 3.5 4.3 0.00 0.00 0.00 53 1007.5
20260507155130 51 332 2.6 2.6 0.00 0.00 0.00 58 1007.8
20260507154627 51 308 3.5 4.3 0.00 0.00 0.00 52 1007.6
20260507154124 51 9 1.7 1.7 0.00 0.00 0.00 55 1007.7
20260507153615 51 299 2.6 2.6 0.00 0.00 0.00 57 1007.7
20260507153112 50 334 4.3 6.1 0.00 0.00 0.00 56 1007.7
20260507152608 51 333 3.5 4.3 0.00 0.00 0.00 58 1007.7
20260507152104 50 17 1.7 1.7 0.00 0.00 0.00 55 1007.7
20260507151600 49 319 5.2 6.1 0.00 0.00 0.00 56 1007.8
20260507151058 50 325 1.7 2.6 0.00 0.00 0.00 60 1007.8
20260507150555 50 339 4.3 5.2 0.00 0.00 0.00 56 1007.7
20260507150051 50 129 3.5 5.2 0.00 0.00 0.00 53 1007.8
20260507145546 50 235 2.6 2.6 0.00 0.00 0.00 56 1007.7
20260507145044 50 303 2.6 2.6 0.00 0.00 0.00 60 1007.9
20260507144540 49 331 2.6 2.6 0.00 0.00 0.00 62 1007.7
20260507144038 48 322 3.5 4.3 0.00 0.00 0.00 59 1007.8
20260507143535 49 329 3.5 5.2 0.00 0.00 0.00 57 1007.8
20260507143033 47 352 4.3 5.2 0.00 0.00 0.00 60 1007.8
20260507142527 48 289 2.6 4.3 0.00 0.00 0.00 58 1008.2
20260507142025 48 326 3.5 4.3 0.00 0.00 0.00 62 1007.9
20260507141521 48 307 4.3 5.2 0.00 0.00 0.00 61 1007.9
20260507141018 48 326 5.2 6.1 0.00 0.00 0.00 63 1008.1
20260507140515 48 29 1.7 1.7 0.00 0.00 0.00 63 1007.9
20260507140012 47 27 2.6 2.6 0.00 0.00 0.00 64 1007.8
20260507135509 47 233 3.5 5.2 0.00 0.00 0.00 65 1008.0
20260507135006 46 5 1.7 1.7 0.00 0.00 0.00 66 1008.1
20260507134503 47 264 2.6 4.3 0.00 0.00 0.00 64 1007.9
20260507133958 46 336 3.5 4.3 0.00 0.00 0.00 64 1007.8
20260507133454 45 358 1.7 2.6 0.00 0.00 0.00 71 1007.8
20260507132953 45 324 3.5 4.3 0.00 0.00 0.00 65 1007.8
20260507132449 45 304 5.2 6.1 0.00 0.00 0.00 66 1007.9
20260507131945 45 324 4.3 5.2 0.00 0.00 0.00 67 1007.9
20260507131442 44 42 1.7 1.7 0.00 0.00 0.00 67 1008.1
20260507130939 44 47 0.9 1.7 0.00 0.00 0.00 70 1008.2
20260507130436 44 310 4.3 5.2 0.00 0.00 0.00 69 1008.1
20260507125935 44 112 0.9 0.9 0.00 0.00 0.00 65 1008.1
20260507125433 44 305 0.9 0.9 0.00 0.00 0.00 70 1007.8
20260507124930 43 46 0.9 1.7 0.00 0.00 0.00 69 1008.2
20260507124426 44 352 2.6 2.6 0.00 0.00 0.00 70 1007.9
20260507123925 43 22 1.7 2.6 0.00 0.00 0.00 71 1007.9
20260507123422 43 295 2.6 4.3 0.00 0.00 0.00 68 1008.0
20260507122918 43 103 1.7 1.7 0.00 0.00 0.00 67 1007.9
20260507122413 43 354 1.7 2.6 0.00 0.00 0.00 72 1008.0
20260507121910 43 346 1.7 1.7 0.00 0.00 0.00 71 1008.1
20260507121405 43 189 0.9 0.9 0.00 0.00 0.00 72 1008.0
20260507120902 42 326 1.7 2.6 0.00 0.00 0.00 74 1008.0
20260507120358 42 346 2.6 2.6 0.00 0.00 0.00 74 1008.0
20260507115854 42 113 1.7 1.7 0.00 0.00 0.00 77 1008.0
20260507115350 41 314 0.9 1.7 0.00 0.00 0.00 75 1007.9
20260507114846 41 329 0.9 0.9 0.00 0.00 0.00 76 1007.9
20260507114344 41 52 0.9 0.9 0.00 0.00 0.00 77 1008.0
20260507113841 40 36 0.9 1.7 0.00 0.00 0.00 78 1007.9
20260507113338 40 37 0.9 0.9 0.00 0.00 0.00 78 1007.8
20260507112835 39 267 2.6 2.6 0.00 0.00 0.00 79 1007.6
20260507112332 39 340 2.6 4.3 0.00 0.00 0.00 80 1007.7
20260507111830 39 44 0.0 0.9 0.00 0.00 0.00 83 1007.6
20260507111326 39 75 1.7 2.6 0.00 0.00 0.00 82 1007.5
20260507110823 39 346 1.7 1.7 0.00 0.00 0.00 83 1007.9
20260507110319 39 6 0.9 1.7 0.00 0.00 0.00 83 1007.4
20260507105816 38 356 0.9 0.9 0.00 0.00 0.00 85 1007.6
20260507105312 38 222 2.6 4.3 0.00 0.00 0.00 85 1007.6
20260507104809 38 235 1.7 1.7 0.00 0.00 0.00 86 1007.3
20260507104306 38 247 1.7 1.7 0.00 0.00 0.00 86 1007.6
20260507103802 38 333 1.7 1.7 0.00 0.00 0.00 86 1007.4
20260507103258 38 352 0.9 0.9 0.00 0.00 0.00 86 1007.4
20260507102755 38 305 2.6 4.3 0.00 0.00 0.00 87 1007.1
20260507102252 38 312 2.6 4.3 0.00 0.00 0.00 88 1007.2
20260507101748 38 303 5.2 6.1 0.00 0.00 0.00 88 1007.2
20260507101243 38 345 2.6 2.6 0.00 0.00 0.00 89 1006.7
20260507100740 38 308 2.6 4.3 0.00 0.00 0.00 90 1006.7
20260507100239 38 305 3.5 4.3 0.00 0.00 0.00 90 1007.0
20260507095736 38 300 3.5 5.2 0.00 0.00 0.00 91 1006.9
20260507095232 38 355 2.6 2.6 0.00 0.00 0.00 92 1007.0
20260507094729 38 271 2.6 2.6 0.00 0.00 0.00 94 1007.0
20260507094226 39 300 1.7 2.6 0.00 0.00 0.00 95 1007.0
20260507093723 39 7 0.9 1.7 0.00 0.00 0.00 96 1006.9
20260507093222 39 358 0.9 1.7 0.00 0.00 0.00 96 1006.9
20260507092719 39 325 1.7 1.7 0.00 0.00 0.00 96 1006.9
20260507092215 39 39 0.0 0.9 0.00 0.00 0.00 95 1007.0
20260507091711 39 358 1.7 1.7 0.00 0.00 0.00 95 1006.9
20260507091208 39 307 1.7 1.7 0.00 0.00 0.00 94 1006.9
20260507090703 39 42 0.0 0.9 0.00 0.00 0.00 94 1006.7
20260507090200 40 277 1.7 2.6 0.00 0.00 0.00 93 1006.5
20260507085657 40 26 2.6 4.3 0.00 0.00 0.00 93 1006.9